User: anonymous   Login
Location: Cazavet
(43.0017°N, 1.0431°E)
Time: 15:22:23
(UTC+00:00)
Language:

NOSS 8 (H) - Orbit

View from above orbital plane
View from above orbital plane
View from above satellite
View from above satellite

Ground track
Ground track

The orbit is defined by the following mean orbital elements,

1 18025U          26076.28780411 +.00000000 +00000-0 +63325-3 0 00003
2 18025  63.2877 251.5453 0789409 101.6423 267.4235 13.88780865    03
Epoch (UTC): 17 March 2026 06:54:26
Eccentricity: 0.0789409
inclination: 63.2877°
perigee height: 356 km
apogee height: 1510 km
right ascension of ascending node: 251.5453°
argument of perigee: 101.6423°
revolutions per day: 13.88780865
mean anomaly at epoch: 267.4235°

The dashed part of the orbit path shows where the satellite is in the earth's shadow,  

DLR